• In Hungary
  • List of Countries
  • For 7 days
  • Water Temperature
  • Satellite Maps
  • Weather Map
  • News
  • Weather Widgets
  • user-avatar
    Login

    Hourly Weather Chim

    Today, 28 May, Monday

    Time Temperature Precipitation Wind Pressure Humidity
    00:00 +1°C° 0 mm 5 mps 748 mmHg 64%
    01:00 +1°C° 0 mm 5 mps 748 mmHg 64%
    02:00 +1°C° 0 mm 5 mps 749 mmHg 65%
    03:00 +1°C° 0 mm 6 mps 749 mmHg 66%
    04:00 +1°C° 0 mm 6 mps 749 mmHg 65%
    05:00 +2°C° 0 mm 6 mps 750 mmHg 63%
    06:00 +2°C° 0 mm 6 mps 750 mmHg 62%
    07:00 +2°C° 0 mm 6 mps 751 mmHg 60%
    08:00 +3°C° 0 mm 6 mps 751 mmHg 57%
    09:00 +3°C° 0 mm 5 mps 752 mmHg 54%
    10:00 +5°C° 0 mm 5 mps 752 mmHg 51%
    11:00 +5°C° 0 mm 5 mps 752 mmHg 47%
    12:00 +6°C° 0 mm 5 mps 752 mmHg 44%
    13:00 +7°C° 0 mm 5 mps 752 mmHg 42%
    14:00 +7°C° 0 mm 5 mps 752 mmHg 41%
    15:00 +8°C° 0 mm 5 mps 752 mmHg 39%
    16:00 +8°C° 0 mm 4 mps 752 mmHg 43%
    17:00 +7°C° 0 mm 4 mps 751 mmHg 46%
    18:00 +8°C° 0 mm 3 mps 751 mmHg 49%
    19:00 +7°C° 0.3 mm 3 mps 750 mmHg 59%
    20:00 +7°C° 0.3 mm 2 mps 750 mmHg 69%
    21:00 +6°C° 0.3 mm 2 mps 749 mmHg 79%
    22:00 +6°C° 0.5 mm 2 mps 749 mmHg 83%
    23:00 +5°C° 0.5 mm 3 mps 748 mmHg 86%

    Tomorrow, 29 May, Tuesday

    Time Temperature Precipitation Wind Pressure Humidity
    00:00 +5°C° 0.5 mm 3 mps 747 mmHg 90%
    01:00 +5°C° 0.5 mm 3 mps 747 mmHg 90%
    02:00 +5°C° 0.5 mm 3 mps 747 mmHg 91%
    03:00 +5°C° 0.5 mm 3 mps 746 mmHg 92%
    04:00 +5°C° 0.1 mm 3 mps 746 mmHg 90%
    05:00 +7°C° 0.1 mm 3 mps 746 mmHg 89%
    06:00 +6°C° 0.1 mm 4 mps 746 mmHg 88%
    07:00 +7°C° 0.1 mm 4 mps 746 mmHg 84%
    08:00 +7°C° 0.1 mm 4 mps 746 mmHg 81%
    09:00 +7°C° 0.1 mm 4 mps 746 mmHg 77%
    10:00 +10°C° 0 mm 4 mps 745 mmHg 67%
    11:00 +11°C° 0 mm 4 mps 745 mmHg 58%
    12:00 +13°C° 0 mm 3 mps 745 mmHg 48%
    13:00 +13°C° 0 mm 3 mps 744 mmHg 47%
    14:00 +13°C° 0 mm 3 mps 744 mmHg 46%
    15:00 +14°C° 0 mm 3 mps 743 mmHg 45%
    16:00 +14°C° 0 mm 2 mps 743 mmHg 50%
    17:00 +14°C° 0 mm 1 mps 742 mmHg 54%
    18:00 +12°C° 0 mm 0 mps 741 mmHg 59%
    19:00 +12°C° 0 mm 1 mps 740 mmHg 65%
    20:00 +11°C° 0 mm 1 mps 740 mmHg 70%
    21:00 +10°C° 0 mm 1 mps 739 mmHg 76%
    22:00 +9°C° 0.1 mm 2 mps 738 mmHg 81%
    23:00 +9°C° 0.1 mm 2 mps 737 mmHg 86%

    Day after tomorrow, 30 May, Wednesday

    Time Temperature Precipitation Wind Pressure Humidity
    00:00 +8°C° 0.1 mm 2 mps 736 mmHg 91%
    01:00 +9°C° 0.5 mm 3 mps 734 mmHg 93%
    02:00 +9°C° 0.5 mm 3 mps 733 mmHg 94%
    03:00 +10°C° 0.5 mm 3 mps 731 mmHg 96%
    04:00 +10°C° 0.5 mm 4 mps 730 mmHg 93%
    05:00 +10°C° 0.5 mm 4 mps 729 mmHg 91%
    06:00 +10°C° 0.5 mm 5 mps 728 mmHg 88%
    07:00 +9°C° 0.8 mm 5 mps 728 mmHg 87%
    08:00 +8°C° 0.8 mm 5 mps 727 mmHg 85%
    09:00 +8°C° 0.8 mm 6 mps 727 mmHg 84%
    10:00 +8°C° 0.2 mm 6 mps 727 mmHg 82%
    11:00 +8°C° 0.2 mm 5 mps 727 mmHg 80%
    12:00 +8°C° 0.2 mm 5 mps 728 mmHg 78%
    13:00 +7°C° 0.2 mm 5 mps 728 mmHg 80%
    14:00 +6°C° 0.2 mm 5 mps 729 mmHg 82%
    15:00 +5°C° 0.2 mm 6 mps 729 mmHg 83%
    16:00 +4°C° 0.5 mm 6 mps 730 mmHg 83%
    17:00 +3°C° 0.5 mm 6 mps 731 mmHg 82%
    18:00 +3°C° 0.5 mm 7 mps 732 mmHg 82%
    19:00 +3°C° 0.2 mm 6 mps 733 mmHg 80%
    20:00 +2°C° 0.2 mm 6 mps 734 mmHg 78%
    21:00 +2°C° 0.2 mm 6 mps 735 mmHg 76%
    22:00 +1°C° 0 mm 6 mps 736 mmHg 76%
    23:00 +1°C° 0 mm 6 mps 736 mmHg 76%

    31 May, Thursday

    Time Temperature Precipitation Wind Pressure Humidity
    00:00 -1°C° 0 mm 6 mps 737 mmHg 75%
    01:00 -2°C° 0 mm 6 mps 738 mmHg 76%
    02:00 -3°C° 0 mm 6 mps 739 mmHg 76%
    03:00 -3°C° 0 mm 6 mps 739 mmHg 76%
    04:00 -3°C° 0 mm 6 mps 740 mmHg 71%
    05:00 -2°C° 0 mm 6 mps 740 mmHg 66%
    06:00 -2°C° 0 mm 7 mps 741 mmHg 60%
    07:00 -1°C° 0 mm 7 mps 741 mmHg 56%
    08:00 0°C° 0 mm 7 mps 742 mmHg 52%
    09:00 +2°C° 0 mm 7 mps 742 mmHg 48%
    10:00 +3°C° 0 mm 6 mps 743 mmHg 46%
    11:00 +3°C° 0 mm 6 mps 743 mmHg 45%
    12:00 +4°C° 0 mm 6 mps 743 mmHg 43%
    13:00 +4°C° 0 mm 6 mps 744 mmHg 43%
    14:00 +4°C° 0 mm 6 mps 744 mmHg 44%
    15:00 +4°C° 0 mm 6 mps 745 mmHg 44%
    16:00 +3°C° 0 mm 5 mps 745 mmHg 46%
    17:00 +3°C° 0 mm 5 mps 745 mmHg 47%
    18:00 +3°C° 0 mm 5 mps 746 mmHg 49%
    19:00 +3°C° 0 mm 4 mps 746 mmHg 52%
    20:00 +1°C° 0 mm 4 mps 746 mmHg 54%
    21:00 +2°C° 0 mm 3 mps 747 mmHg 57%
    22:00 +1°C° 0 mm 3 mps 747 mmHg 61%
    23:00 0°C° 0 mm 3 mps 747 mmHg 65%

    1 June, Friday

    Time Temperature Precipitation Wind Pressure Humidity
    00:00 -2°C° 0 mm 3 mps 747 mmHg 69%
    01:00 -2°C° 0 mm 3 mps 748 mmHg 72%
    02:00 -2°C° 0 mm 3 mps 748 mmHg 74%
    03:00 -4°C° 0 mm 3 mps 748 mmHg 77%
    04:00 -2°C° 0 mm 3 mps 748 mmHg 71%
    05:00 0°C° 0 mm 3 mps 749 mmHg 66%
    06:00 0°C° 0 mm 4 mps 749 mmHg 60%
    07:00 0°C° 0 mm 4 mps 749 mmHg 57%
    08:00 +1°C° 0 mm 4 mps 749 mmHg 55%
    09:00 +1°C° 0 mm 4 mps 749 mmHg 52%
    10:00 +3°C° 0 mm 4 mps 749 mmHg 49%
    11:00 +4°C° 0 mm 4 mps 750 mmHg 47%
    12:00 +4°C° 0 mm 4 mps 750 mmHg 44%
    13:00 +5°C° 0 mm 4 mps 750 mmHg 44%
    14:00 +5°C° 0 mm 4 mps 750 mmHg 45%
    15:00 +7°C° 0 mm 3 mps 750 mmHg 45%
    16:00 +7°C° 0 mm 3 mps 750 mmHg 47%
    17:00 +7°C° 0 mm 3 mps 750 mmHg 49%
    18:00 +7°C° 0 mm 2 mps 749 mmHg 52%
    19:00 +6°C° 0 mm 2 mps 749 mmHg 57%
    20:00 +5°C° 0 mm 2 mps 749 mmHg 63%
    21:00 +5°C° 0 mm 1 mps 749 mmHg 68%
    22:00 +4°C° 0 mm 2 mps 749 mmHg 72%
    23:00 +3°C° 0 mm 2 mps 749 mmHg 75%

    2 June, Saturday

    Time Temperature Precipitation Wind Pressure Humidity
    00:00 +3°C° 0 mm 2 mps 749 mmHg 79%
    01:00 +3°C° 0.1 mm 2 mps 748 mmHg 78%
    02:00 +3°C° 0.1 mm 3 mps 748 mmHg 78%
    03:00 +3°C° 0.1 mm 3 mps 748 mmHg 77%
    04:00 +4°C° 0.1 mm 3 mps 747 mmHg 75%
    05:00 +5°C° 0.1 mm 3 mps 747 mmHg 74%
    06:00 +5°C° 0.1 mm 3 mps 747 mmHg 72%
    07:00 +8°C° 0 mm 3 mps 746 mmHg 66%
    08:00 +10°C° 0 mm 4 mps 746 mmHg 60%
    09:00 +12°C° 0 mm 4 mps 746 mmHg 54%
    10:00 +12°C° 0.1 mm 4 mps 745 mmHg 56%
    11:00 +12°C° 0.1 mm 4 mps 745 mmHg 59%
    12:00 +13°C° 0.1 mm 4 mps 745 mmHg 61%
    13:00 +15°C° 0 mm 4 mps 744 mmHg 55%
    14:00 +18°C° 0 mm 4 mps 744 mmHg 49%
    15:00 +19°C° 0 mm 4 mps 743 mmHg 43%
    16:00 +19°C° 0 mm 3 mps 743 mmHg 43%
    17:00 +19°C° 0 mm 3 mps 742 mmHg 44%
    18:00 +19°C° 0 mm 2 mps 742 mmHg 45%
    19:00 +18°C° 0 mm 3 mps 742 mmHg 48%
    20:00 +17°C° 0 mm 3 mps 741 mmHg 51%
    21:00 +16°C° 0 mm 3 mps 741 mmHg 54%
    22:00 +14°C° 0 mm 3 mps 741 mmHg 59%
    23:00 +14°C° 0 mm 3 mps 740 mmHg 64%
    Show more